Yankton, SD

1:48 AM CST on December 09, 2019 (GMT -0600)
Gurney Municipal

Weather History for KYKN - November, 2019

Change the Weather History Date:

Monday, November 18, 2019

  Actual Average Record
Temperature  
Mean Temperature 46 °F -  
Max Temperature 60 °F 46 °F 71 °F (1953)
Min Temperature 33 °F 24 °F -1 °F (1959)
Degree Days  
Heating Degree Days 18    
Moisture  
Dew Point 39 °F    
Average Humidity 80    
Maximum Humidity 96    
Minimum Humidity 53    
Precipitation  
Precipitation 0.00 in - - ()
Sea Level Pressure  
Sea Level Pressure 29.77 in    
Wind  
Wind Speed 9 mph (NW)    
Max Wind Speed 23 mph    
Max Gust Speed 29 mph    
Visibility 10 miles    
Events Rain    
Averages and records for this station are not official NWS values.
T = Trace of Precipitation, MM = Missing Value Source: NWS Daily Summary

Daily Weather History Graph

Daily Weather History Graph

Search for Another Location

Airport or City:

Astronomy

Nov. 18, 2019 Rise Set
Actual Time 7:25 AM CST 5:03 PM CST
Civil Twilight 6:54 AM CST 5:34 PM CST
Nautical Twilight 6:20 AM CST 6:08 PM CST
Astronomical Twilight 5:46 AM CST 6:42 PM CST
Moon 10:49 PM CST (11/18) 12:58 PM CST (11/18)
Length of Visible Light 10h 39m
Length of Day
9h 38m
Waning Gibbous, 63% of the Moon is Illuminated
Nov 18
Waning Gibbous
Nov 19
Last Quarter
Nov 26
New
Dec 4
First Quarter
Dec 11
Full

Hourly Weather History & Observations

Time (CST) Temp. Windchill Dew Point Humidity Pressure Visibility Wind Dir Wind Speed Gust Speed Precip Events Conditions
12:56 AM 33.1 °F 27.7 °F 30.9 °F 92% 29.84 in 10.0 mi East 5.8 mph - N/A   Clear
1:56 AM 33.1 °F 27.7 °F 30.9 °F 92% 29.81 in 10.0 mi East 5.8 mph - N/A   Mostly Cloudy
2:56 AM 34.0 °F 27.2 °F 33.1 °F 96% 29.80 in 10.0 mi East 8.1 mph - N/A   Overcast
3:56 AM 35.1 °F 31.0 °F 32.0 °F 89% 29.78 in 10.0 mi East 4.6 mph - 0.00 in Rain Light Rain
4:56 AM 35.1 °F 31.0 °F 32.0 °F 89% 29.77 in 10.0 mi ENE 4.6 mph - 0.00 in Rain Light Rain
5:56 AM 35.1 °F - 33.1 °F 92% 29.76 in 10.0 mi Calm Calm - 0.00 in Rain Light Rain
6:56 AM 35.1 °F - 33.1 °F 92% 29.76 in 10.0 mi Calm Calm - 0.00 in   Overcast
7:56 AM 37.0 °F 34.5 °F 35.1 °F 93% 29.77 in 10.0 mi SSW 3.5 mph - N/A   Overcast
8:56 AM 39.9 °F - 36.0 °F 86% 29.76 in 10.0 mi Calm Calm - N/A   Overcast
9:56 AM 48.9 °F - 41.0 °F 74% 29.73 in 10.0 mi WSW 9.2 mph - N/A   Overcast
10:56 AM 54.0 °F - 44.1 °F 69% 29.72 in 10.0 mi West 17.3 mph 23.0 mph N/A   Overcast
11:56 AM 55.9 °F - 46.0 °F 69% 29.70 in 10.0 mi West 15.0 mph 21.9 mph N/A   Overcast
12:56 PM 59.0 °F - 45.0 °F 60% 29.68 in 10.0 mi WNW 20.7 mph - N/A   Overcast
1:56 PM 60.1 °F - 43.0 °F 53% 29.67 in 10.0 mi NW 23.0 mph 28.8 mph N/A   Overcast
2:56 PM 57.9 °F - 43.0 °F 58% 29.69 in 10.0 mi NW 19.6 mph - N/A   Scattered Clouds
3:56 PM 55.9 °F - 44.1 °F 64% 29.73 in 10.0 mi NNW 17.3 mph - N/A   Overcast
4:56 PM 54.0 °F - 44.1 °F 69% 29.76 in 10.0 mi NW 16.1 mph - N/A   Overcast
5:56 PM 53.1 °F - 43.0 °F 69% 29.78 in 10.0 mi NW 20.7 mph 25.3 mph N/A   Overcast
6:56 PM 50.0 °F - 42.1 °F 74% 29.82 in 10.0 mi NNW 19.6 mph - N/A   Overcast
7:56 PM 46.0 °F 41.0 °F 41.0 °F 83% 29.83 in 10.0 mi NW 10.4 mph - N/A   Clear
8:56 PM 42.1 °F 36.6 °F 39.9 °F 92% 29.85 in 10.0 mi WNW 9.2 mph - N/A   Clear
9:56 PM 44.1 °F 37.7 °F 39.0 °F 82% 29.85 in 10.0 mi WNW 12.7 mph - N/A   Clear
10:56 PM 39.0 °F 32.8 °F 36.0 °F 89% 29.84 in 10.0 mi WNW 9.2 mph - N/A   Clear
11:56 PM 42.1 °F 36.6 °F 37.0 °F 82% 29.84 in 10.0 mi West 9.2 mph - N/A   Clear